Probability
0 0 0 0 0 0 0 0 0 0 0 0 0 0 0 0 0 0 0 0 0 0 0 0 0 0 0 0 0 0 0 0 0 0 0 0 0 0
0 0 0 0 0 0 0 0 0 0 0 0 0 0 0 0 0 0 0 0 0 0 0 0 0 0 0 0 0 0 0 0 0 0 0 0 0 0
0 0 0 0 0 0 0 0 0 0 0 0 0 0 0 0 0 0 0 0 0 0 0 0 0 0 0 0 0 0 0 0 0 0 0 0 0 0
0 0 0 0 0 0 0 0 0 0 0 0 0 0 0 0 0 0 0 0 0 0 0 0 0 0 0 0 0 0 0 0 0 0 0 0 0 0
0 0 0 0 0 0 0 0 0 0 0 0 0 0 0 0 0 0 0 0 0 0 0 0 0 0 0 0 0 0 0 0 0 0 0 0 0 0
0 0 0 0 0 0 0 0 0 0 0 0 0 0 0 0 0 0 0 0 0 0 0 0 0 0 0 0 0 0 0 0 0 0 0 0 0 0
0 0 0 0 0 0 0 0 0 0 0 0 0 0 0 0 0 0 0 0 0 0 0 0 0 0 0 0 0 0 0 0 0 0 0 0 0 0
0 0 0 0 0 0 0 0 0 0 0 0 0 0 0 0 0 0 0 0 0 0 0 0 0 0 0 0 0 0 0 0 0 0 0 0 0 0
0 0 0 0 0 0 0 0 0 0 0 0 0 0 0 0 0 0 0 0 0 0 0 0 0 0 0 0 0 0 0 0 0 0 0 0 0 0
0 0 0 0 0 0 0 0 0 0 0 0 0 0 0 0 0 0 0 0 0 0 0 0 0 0 0 0 0 0 0 0 0 0 0 0 0 0
0 0 0 0 0 0 0 0 0 0 0 0 0 0 0 0 0 0 0 0 0 0 0 0 0 0 0 0 0 0 0 0 0 0 0 0 0 0
0 0 0 0 0 0 0 0 0 0 0 0 0 0 0 0 0 0 0 0 0 0 0 0 0 0 0 0 0 0 0 0 0 0 0 0 0 0
0 0 0 0 0 0 0 0 0 0 0 0 0 0 0 0 0 0 0 0 0 0 0 0 0 0 0 0 0 0 0 0 0 0 0 0 0 0
0 0 0 0 0 0 0 0 0 0 0 0 0 0 0 0 0 0 0 0 0 0 0 0 0 0 0 0 0 0 0 0 0 0 0 0 0 0
0 0 0 0 0 0 0 0 0 0 0 0 0 0 0 0 0 0 0 0 0 0 0 0 0 0 0 0 0 0 0 0 0 0 0 0 0 0
0 0 0 0 0 0 0 0 0 0 0 0 0 0 0 0 0 0 0 0 0 0 0 0 0 0 0 0 0 0 0 0 0 0 0 0 0 0
0 0 0 0 0 0 0 0 0 0 0 0 0 0 0 0 0 0 0 0 0 0 0 0 0 0 0 0 0 0 0 0 0 0 0 0 0 0
0 0 0 0 0 0 0 0 0 0 0 0 0 0 0 0 0 0 0 0 0 0 0 0 0 0 0 0 0 0 0 0 0 0 0 0 0 0
0 0 0 0 0 0 0 0 0 0 0 0 0 0 0 0 0 0 0 0 0 0 0 0 0 0 0 0 0 0 0 0 0 0 0 0 0 0
0 0 0 0 0 0 0 0 0 0 0 0 0 0 0 0 0 0 0 0 0 0 0 0 0 0 0 0 0 0 0 0 0 0 0 0 0 0
0 0 0 0 0 0 0 0 0 0 0 0 0 0 0 0 0 0 0 0 0 0 0 0 0 0 0 0 0 0 0 0 0 0 0 0 0 0
0 0 0 0 0 0 0 0 0 0 0 0 0 0 0 0 0 0 0 0 0 0 0 0 0 0 0 0 0 0 0 0 0 0 0 0 0 0
0 0 0 0 0 0 0 0 0 0 0 0 0 0 0 0 0 0 0 0 0 0 0 0 0 0 0 0 0 0 0 0 0 0 0 0 0 0
Wind_Speed
5 5 4 4 4 4 4 4 3 3 3 3 1 1 1 3 5 5 6 10 13 13 14 14 14 13 12 11 10 10 10 10 10 10 9 5 2 5
5 5 5 4 4 4 4 4 4 4 4 3 1 1 3 4 7 6 7 13 13 14 15 15 15 14 13 12 12 12 12 12 13 14 14 14 14 13
6 6 7 5 4 4 3 3 4 4 5 3 2 2 4 7 7 7 7 7 8 14 15 16 15 14 14 13 13 13 13 14 14 15 15 15 16 16
7 7 7 5 6 4 4 4 4 4 4 4 2 3 4 9 9 9 7 7 8 14 15 16 16 15 14 14 14 13 13 14 14 15 15 16 17 18
8 8 8 7 7 5 5 4 3 4 4 4 3 3 4 8 10 9 10 8 8 12 14 15 16 16 15 15 15 14 14 14 14 15 15 16 17 18
7 8 8 8 8 7 5 5 4 4 4 4 5 6 7 9 9 10 9 7 7 8 10 11 15 16 16 16 16 16 15 14 14 15 15 15 15 16
6 7 8 9 10 8 5 5 4 4 4 5 6 6 8 10 9 7 10 9 7 6 8 6 7 7 8 12 15 16 15 14 14 15 14 14 14 15
7 7 7 9 10 10 9 7 7 6 6 5 5 8 10 10 9 11 11 10 6 4 6 6 4 6 4 4 10 13 13 13 13 13 13 13 13 14
7 6 6 7 9 6 5 4 3 5 7 6 9 10 11 12 12 12 8 6 7 7 7 6 3 5 3 5 9 11 11 11 11 11 11 11 12 12
7 7 8 8 9 8 6 3 2 2 3 5 7 9 11 11 10 11 10 10 9 6 4 5 3 3 3 3 5 8 9 10 10 10 10 10 10 10
6 6 8 10 13 12 8 6 5 4 7 11 12 13 16 15 13 11 11 12 10 5 2 4 4 3 2 1 1 4 5 7 8 8 9 10 9 8
5 5 9 11 14 14 9 9 8 6 7 10 12 13 12 12 13 9 10 12 10 5 3 4 4 4 3 1 1 1 1 1 3 5 7 9 9 4
3 3 4 12 15 15 11 8 10 10 8 9 9 8 7 6 6 6 7 10 10 5 6 6 4 3 4 3 2 2 2 1 0 0 2 5 7 5
3 2 3 10 14 15 10 11 15 12 8 8 8 6 6 5 5 5 7 7 6 8 10 8 6 5 5 4 3 2 2 2 2 1 1 2 3 5
3 3 3 8 11 10 13 17 14 9 9 8 8 5 4 4 5 6 7 7 6 5 7 6 8 6 5 5 4 3 2 2 2 2 2 3 3 3
3 2 4 8 6 7 11 11 7 8 9 8 6 4 4 4 5 6 7 7 6 4 4 3 8 9 5 4 5 4 3 3 2 2 2 1 2 3
5 2 2 4 4 5 6 5 6 7 7 6 7 6 5 5 4 4 4 5 5 5 3 3 4 5 6 6 5 4 3 2 2 2 2 2 1 3
6 4 4 4 5 6 7 5 5 7 7 8 8 7 6 6 4 3 4 6 7 5 4 4 5 5 5 5 2 5 4 3 2 2 2 3 1 2
5 5 5 5 4 5 6 6 5 6 7 8 8 7 7 6 5 5 5 5 5 4 3 3 4 6 6 3 2 0 5 4 3 2 2 3 4 4
4 5 6 5 4 4 5 5 6 7 7 8 7 7 7 6 5 5 5 5 5 4 3 2 3 5 6 6 5 3 4 5 4 3 2 1 1 2
4 4 5 5 4 4 5 6 8 8 8 7 7 7 6 6 5 5 5 7 5 4 4 4 4 5 4 4 3 1 3 5 7 5 4 3 1 1
3 3 3 4 4 5 6 7 7 7 8 6 6 6 6 6 7 7 6 6 4 4 4 3 3 3 3 4 4 4 3 3 4 7 7 8 6 6
2 2 2 4 4 5 6 7 9 7 6 6 6 6 6 6 6 6 7 7 6 5 4 4 2 2 2 3 4 3 4 4 3 3 5 11 15 14
Wind_Direction
229 233 234 241 233 224 213 202 213 255 279 271 260 78 102 98 109 112 117 128 128 123 120 118 115 112 107 102 95 87 79 73 67 60 53 42 339 255
223 227 235 238 237 231 219 208 202 213 243 259 229 140 130 112 99 101 110 117 114 115 113 113 112 110 106 101 96 90 84 80 75 70 66 62 60 61
226 222 229 228 232 234 223 210 207 206 237 244 212 142 129 126 113 107 109 107 110 110 112 111 108 106 102 99 94 90 86 82 79 76 73 70 68 68
222 218 226 226 228 230 222 219 214 208 218 226 193 155 136 138 127 119 111 107 105 108 109 108 106 104 101 98 94 89 84 81 79 78 76 75 74 73
222 214 217 216 227 227 221 222 222 218 213 208 186 155 136 140 129 117 110 105 103 106 103 103 104 104 102 100 96 91 86 83 80 77 75 74 75 76
237 222 214 210 216 217 217 221 221 223 213 201 177 159 147 142 135 132 123 115 109 105 100 103 104 102 103 103 102 98 92 88 84 81 78 76 75 75
261 236 222 210 208 205 204 211 212 216 204 189 173 158 151 152 145 139 132 119 99 109 110 103 101 96 93 100 102 104 99 94 90 88 85 82 79 77
268 250 225 204 202 202 206 207 206 206 196 181 171 162 155 150 140 142 139 135 122 139 115 101 97 95 85 89 109 108 105 102 100 96 93 89 84 80
260 241 218 199 185 181 185 180 191 196 193 179 165 158 154 152 145 142 141 127 122 145 122 100 84 88 83 99 114 115 115 113 112 110 106 100 94 88
255 237 216 190 186 174 165 147 119 104 143 149 146 142 142 142 140 137 128 109 104 116 108 108 101 87 82 70 113 120 123 123 124 127 128 124 114 103
257 245 219 194 187 172 157 146 125 99 92 105 116 122 126 131 134 130 130 133 135 133 110 107 120 100 83 81 92 124 127 128 128 131 138 147 141 116
261 250 220 200 181 171 162 156 144 133 120 111 108 114 123 133 139 139 142 144 141 137 158 117 138 127 113 126 137 107 87 110 116 115 125 144 149 125
247 243 220 199 180 172 165 164 153 138 124 118 115 115 120 131 145 147 151 153 152 147 156 132 143 136 130 144 172 189 184 194 58 32 135 148 157 150
222 231 214 189 179 171 163 153 143 132 124 119 118 122 127 134 143 150 150 151 155 152 156 147 142 154 131 129 163 180 187 198 184 222 209 159 151 157
201 203 164 173 173 170 159 151 145 136 133 129 129 127 124 126 121 114 111 108 92 110 147 153 146 142 138 143 152 153 163 203 189 191 187 172 167 149
188 166 141 154 169 161 155 154 148 144 141 136 130 121 109 108 119 125 125 121 104 72 49 113 150 144 136 134 138 148 157 174 186 183 162 153 166 166
157 140 133 147 157 152 155 151 137 133 128 126 130 124 118 114 113 111 119 115 119 126 101 62 76 97 120 134 135 145 149 169 186 165 127 95 82 183
155 156 157 155 158 158 158 147 137 140 140 138 140 138 137 134 126 112 112 123 128 129 128 130 117 92 60 25 95 142 145 166 174 152 128 121 192 239
159 159 154 149 154 157 157 149 143 145 143 145 146 144 139 134 130 127 123 122 126 129 132 133 127 121 127 140 301 170 149 155 147 149 167 165 193 222
162 158 154 150 149 153 154 146 140 141 142 145 145 144 141 138 138 140 140 139 137 129 126 130 144 145 154 165 177 210 181 154 156 173 194 200 244 289
146 143 141 148 154 157 151 144 143 146 147 145 147 148 146 141 146 153 155 156 140 137 154 182 196 156 115 99 106 205 238 206 174 170 170 164 213 273
131 136 147 164 161 155 148 142 141 144 145 143 149 152 151 150 154 159 164 164 164 158 164 163 126 115 115 142 173 200 227 243 230 216 201 182 175 197
155 168 174 175 163 152 147 144 145 148 150 147 149 152 149 148 152 156 163 164 157 150 139 143 144 137 145 152 167 191 213 218 211 224 250 238 227 232